Location: Nitra
(0.0000°N, 18.0833°E)
Time: 03:47:15
(UTC+02:00)

Transit 2A - Visible Passes

Search period start: 19 April 2024 00:00
Search period end: 29 April 2024 00:00
Orbit: 596 x 956 km, 66.7° (Epoch: 18 April)

Date Brightness Start Highest point End Pass type
(mag) Time Alt. Az. Time Alt. Az. Time Alt. Az.
19 Apr 6.7 05:31:23 10° S 05:35:35 42° ESE 05:39:38 10° NE visible
20 Apr 7.8 04:57:04 10° SSE 05:00:29 22° ESE 05:03:51 10° ENE visible
21 Apr 8.4 04:24:19 11° SE 04:25:22 12° ESE 04:26:58 10° E visible
21 Apr 6.6 06:04:50 11° SW 06:08:10 25° WNW 06:11:44 10° NNW visible
22 Apr 5.7 05:31:54 37° WSW 05:33:07 49° WNW 05:37:15 10° N visible
23 Apr 5.9 04:58:50 59° NNE 04:58:50 59° NNE 05:02:20 10° NNE visible
24 Apr 7.9 04:25:36 19° NE 04:25:36 19° NE 04:27:01 10° NE visible
25 Apr 7.8 05:32:43 10° NW 05:32:43 10° NW 05:32:51 10° NW visible
